Preview of NWS' New Version of Forecast
This preview is not operational and should not be used for support decisions.

Regional Weather Roundup (RWR)

Issued by National Weather Service (NWS)

                            
000
ASUS42 KTBW 211916
RWRFL 
FLORIDA REGIONAL WEATHER ROUNDUP
NATIONAL WEATHER SERVICE TAMPA BAY RUSKIN FL
300 PM EDT TUE MAY 21 2019

NOTE: "FAIR" INDICATES FEW OR NO CLOUDS BELOW 12,000 FEET WITH NO
SIGNIFICANT WEATHER AND/OR OBSTRUCTIONS TO VISIBILITY.

FLZ001>010-012>015-112-114-115-212000-
PANHANDLE FLORIDA
  
CITY           SKY/WX    TMP DP  RH WIND       PRES   REMARKS
PENSACOLA      FAIR      84  72  67 SE15      29.93F                  
PENSACOLA NAS  PTSUNNY   84  72  67 S15       29.93S                  
MILTON NAS     FAIR      84  69  60 S12       29.93F                  
CRESTVIEW      FAIR      87  57  35 S10       29.94F                  
DUKE FIELD     FAIR      87  61  41 SE13      29.93F                  
VALPARAISO     FAIR      84  67  56 S14       29.94F                  
MARY ESTHER    FAIR      84  69  60 SE12G20   29.93F                  
PANAMA CITY    FAIR      87  62  43 S12       29.94F                  
TYNDALL AFB    FAIR      84  67  56 S9        29.94F                  
APALACHICOLA   FAIR      85  65  51 SW8       29.95F                  

STATION/POSITION SKY/WX   TEMP    WIND        PRES    WAVE   SWELL
                          AIR SEA DIR/SP/G            HT/PER HT/PER
                          (F)     (DEG/KT/KT) (MB)    (FT/S) (FT/S)
30.1N   87.6W                                   N/A     3/ 4
29.2N   88.2W                     150/ 14/ 17 1012.9F   3/ 5
PANAMA CITY BEAC           80 82  170/  9/ 10 1014.7F
TOWER C          NOT AVBL

$$
FLZ011-016>038-118-127-128-134-139-239-212000-
NORTH FLORIDA
  
CITY           SKY/WX    TMP DP  RH WIND       PRES   REMARKS
MARIANNA       FAIR      91  59  33 S10       29.92F                  
TALLAHASSEE    FAIR      92  65  40 SE10G16   29.93F                  
PERRY          FAIR      94  64  37 S6        29.94F HX  95           
LIVE OAK       PTSUNNY   91  63  38 E5        29.93F                  
CROSS CITY     CLOUDY    87  70  57 S12       29.94S                  
LAKE CITY      FAIR      90  61  37 CALM      29.94F                  
GAINESVILLE    FAIR      95  65  37 E6        29.95F HX  97           
WILLISTON      PTSUNNY   94  63  35 S8        29.93F HX  95           
PALATKA        FAIR     N/A N/A N/A SE6       29.93F                  
MAYPORT NAS    FAIR      86  74  67 SE15      29.95F                  
JACKSONVILLE   FAIR      93  65  39 NE6       29.92F HX  95           
JAX NAS        FAIR      93  62  35 S7        29.94F                  
JAX CECIL      MOSUNNY   99  63  30 VRB6      29.93F HX 100           
FERNANDINA BEA FAIR      85  74  69 SE13      29.95F                  
ST AUGUSTINE   FAIR      85  75  72 SE15      29.96F                  
PALM COAST     SUNNY     88  72  58 E13       29.95F                  

STATION/POSITION SKY/WX   TEMP    WIND        PRES    WAVE   SWELL
                          AIR SEA DIR/SP/G            HT/PER HT/PER
                          (F)     (DEG/KT/KT) (MB)    (FT/S) (FT/S)
SHELL POINT      NOT AVBL
KEATON BEACH               82     230/  8/ 10 1014.4F
CEDAR KEY                  82     220/  6/  8 1014.2F
FERNANDINA                 88 82  120/  7/ 11 1014.9F
30.7N   81.3W                 80                N/A     2/ 4
MAYPORT                    83 81  130/  9/ 14 1014.5F
31.4N   80.9W              78 78  170/ 10/ 10 1014.3F   2/ 5   2/ 5
ST AUGUSTINE               79 82  120/ 12/ 13 1014.6F

$$
FLZ040-043>046-052-053-057-058-063-144-212000-
INTERIOR CENTRAL FLORIDA
  
CITY           SKY/WX    TMP DP  RH WIND       PRES   REMARKS
OCALA          FAIR      92  62  36 VRB6      29.94F                  
LEESBURG       FAIR      90  63  40 VRB7      29.95F                  
SANFORD        FAIR      92  63  38 VRB6      29.94F                  
ORLANDO EXEC   FAIR      90  61  37 E3        29.95F                  
ORLANDO INTL   FAIR      91  65  41 VRB3      29.94F                  
KISSIMMEE      FAIR      89  66  46 VRB3      29.96F                  
WINTER HAVEN   FAIR      92  65  40 E8        29.96F                  
LAKELAND       PTSUNNY   90  66  45 CALM      29.97S                  
BARTOW         MOSUNNY   91  63  38 VRB3      29.94F                  
SEBRING        FAIR      91  65  42 E9        29.95F                  
OKEECHOBEE     FAIR      88  64  45 S9        29.95F                  

$$
FLZ041-047-054-059-064-141-147-212000-
EAST CENTRAL FLORIDA
  
CITY           SKY/WX    TMP DP  RH WIND       PRES   REMARKS
ORMOND BEACH   MOSUNNY   84  72  65 SE12      29.95F                  
DAYTONA BEACH  FAIR      88  71  57 E12       29.95F                  
DELAND         CLOUDY    90  61  37 E5        29.94F                  
NEW SMYRNA BEA MOSUNNY   86  72  62 SE14      29.97F                  
JFK SPACE CTR  FAIR      87  73  62 SE10      29.95F                  
TITUSVILLE     MOSUNNY   91  66  43 E8        29.97F                  
CAPE CANAVERAL FAIR      85  59  41 SE12      29.96F                  
PATRICK AFB    FAIR      85  72  66 E13       29.97F                  
MELBOURNE      FAIR      85  71  63 E13       29.96F                  
VERO BEACH     FAIR      86  69  56 E13G23    29.97F                  
FT PIERCE      FAIR      85  68  56 E12       29.96F                  
STUART         MOSUNNY   84  68  58 E12       29.99F                  

STATION/POSITION SKY/WX   TEMP    WIND        PRES    WAVE   SWELL
                          AIR SEA DIR/SP/G            HT/PER HT/PER
                          (F)     (DEG/KT/KT) (MB)    (FT/S) (FT/S)
28.5N   80.2W              80     120/  6/  8 1015.7F   2/ 6   2/ 6
28.9N   78.5W              78 80   90/  4/  6 1016.1F   2/ 6   2/ 6
TRIDENT PIER               83 83  110/  9/ 11 1016.4F
28.4N   80.5W                 82                N/A     1/ 7
27.5N   80.2W                 81                N/A     2/ 7

$$
FLZ050-056-061-142-242-148-248-149-249-151-251-155-255-
160-260-212000-
WEST CENTRAL FLORIDA
  
CITY           SKY/WX    TMP DP  RH WIND       PRES   REMARKS
CRYSTAL RIVER  PTSUNNY   88  70  55 W7        29.94F                  
INVERNESS      FAIR      91  66  43 SE6       29.94F                  
BROOKSVILLE    FAIR      91  65  41 SE7       29.94F                  
CLEARWATER AIR FAIR      86  70  58 CALM      29.94F                  
ST PETE CLEARW FAIR      89  68  49 NE9       29.94F                  
TAMPA INTL     FAIR      88  70  55 W8        29.94F                  
TAMPA EXEC     PTSUNNY   91  68  46 E7        29.94F HX  95           
PLANT CITY     FAIR      91  63  38 E7        29.96F                  
MACDILL AFB    FAIR      88  71  56 NE3       29.94F                  
PETER O KNIGHT CLOUDY    91  70  49 SW6       29.94F HX  97           
ST PETERSBURG  FAIR      84  73  69 SW6       29.92F                  
SARASOTA       FAIR      89  70  53 SW12      29.92F                  
VENICE         FAIR      88  73  62 SW10      29.95F HX  96           

STATION/POSITION SKY/WX   TEMP    WIND        PRES    WAVE   SWELL
                          AIR SEA DIR/SP/G            HT/PER HT/PER
                          (F)     (DEG/KT/KT) (MB)    (FT/S) (FT/S)
27.3N   84.2W                 82                N/A     1/ 7
CLEARWATER BEACH           81 85  220/ 10/ 11 1014.2F
MIDDLE TAMPA BAY           81     270/  9/  9 1014.1F
VENICE                     82 82  210/  9/ 10 1013.9F

$$
FLZ066-069-070-075>078-162-262-165-265-212000-
SOUTHWEST FLORIDA AND KEYS
  
CITY           SKY/WX    TMP DP  RH WIND       PRES   REMARKS
PUNTA GORDA    PTSUNNY   87  69  54 W7        29.94F                  
FT MYERS       FAIR      87  69  54 S5        29.92F                  
SOUTHWEST INTL FAIR      91  66  43 SE6       29.92F                  
NAPLES         FAIR      86  74  67 SW12G20   29.93F                  
MARCO ISLAND   FAIR      90  68  48 S10       29.93F                  
IMMOKALEE      FAIR      93  66  40 VRB5G12   29.91F HX  96           
MARATHON       FAIR      90  72  55 SE8       29.93F HX  97           
KEY WEST NAS   FAIR      87  73  62 SE9       29.93F                  
KEY WEST INTL  FAIR      85  73  67 SE8       29.94F                  

STATION/POSITION SKY/WX   TEMP    WIND        PRES    WAVE   SWELL
                          AIR SEA DIR/SP/G            HT/PER HT/PER
                          (F)     (DEG/KT/KT) (MB)    (FT/S) (FT/S)
NAPLES                     87 85              1013.8F
DRY TORTUGAS               81     120/  6/  7 1014.3
SAND KEY                   81                 1013.7F
SOMBRERO KEY               81                 1013.3F

$$
FLZ067-068-071>074-168-172>174-212000-
SOUTHEAST FLORIDA 
  
CITY           SKY/WX    TMP DP  RH WIND       PRES   REMARKS
W PALM BEACH   FAIR      86  70  58 E13       29.97F                  
BOCA RATON     SUNNY     90  70  51 SE10G16   29.96F HX  95           
FT LAUDER-EXEC FAIR      88  66  48 E13       29.95F                  
FT LAUDERDALE  FAIR      86  69  56 E15       29.95F                  
POMPANO BEACH  FAIR      87  68  52 E12       29.96F                  
PEMBROKE PINES FAIR      88  64  44 E15       29.96F                  
OPA LOCKA      FAIR      89  68  49 SE13      29.95F                  
MIAMI          FAIR      89  69  51 SE15      29.94F                  
WEST KENDALL   FAIR      90  67  46 SE12      29.94F                  
HOMESTEAD      FAIR      86  71  61 E14       29.94F                  

STATION/POSITION SKY/WX   TEMP    WIND        PRES    WAVE   SWELL
                          AIR SEA DIR/SP/G            HT/PER HT/PER
                          (F)     (DEG/KT/KT) (MB)    (FT/S) (FT/S)
PORT EVERGLADES            85     100/  4/  8 1014.6
VIRGINIA KEY               82 85   80/  9/ 12 1014.0F
LAKE WORTH                 81 83              1016.0F
SETTLEMENT POINT           80      50/  8/  9 1015.6F

$$